Flag for Saint Lucia Weather past 2 weeks in Castries, Saint Lucia

Now
88 °F

Scattered clouds.


Feels Like: 98 °F
Forecast: 82 / 89 °F
Wind: 10 mph from Southeast

Location: Vigie

Current Time: Oct 25, 2014 at 11:46:44 AM

Latest Report: Oct 25, 2014 at 11:00 AM


Visibility: N/A

Pressure: 29.92 "Hg

Humidity: 66%

Dew point: 75 °F

Location of CastriesLocation

Historic Weather in Castries — Graph

°F

Castries temperature yesterday

Maximum temperature yesterday: 88 °F (at 12:00 PM)
Minimum temperature yesterday: 77 °F (at 6:00 AM)
Average temperature yesterday: 83 °F

Past Weeks' High & Low Weather Summary

 TemperatureHumidityPressure
High90 °F (Oct 10, 12:00 PM)100% (Oct 11, 7:00 PM)30.01 "Hg (Oct 11, 7:00 PM)
Low75 °F (Oct 18, 6:00 AM)59% (Oct 14, 12:00 PM)29.83 "Hg (Oct 10, 3:00 PM)
Average84 °F77%29.92 "Hg
* Reported Oct 10 10:00 AM — Oct 25 10:00 AM, Castries, Weather by CustomWeather, © 2014

Note: Actual official high and low records may vary slightly from our data, if they occured in-between our weather recording intervals... More about our weather records

Advertising

Castries weather history for previous 24 hours

 ConditionsComfort  
Time TempWeatherWind HumidityBarometerVisibility
10:00 AM
Oct 25
86 °FScattered clouds.10 mph70%29.92 "HgN/A
9:00 AM86 °FScattered clouds.9 mph70%29.92 "HgN/A
8:00 AM84 °FScattered clouds.8 mph74%29.92 "HgN/A
7:00 AM82 °FScattered clouds.7 mph79%29.89 "HgN/A
6:00 AM81 °FScattered clouds.5 mph79%29.86 "HgN/A
9:00 PM
Oct 24
82 °FPassing clouds.8 mph79%29.89 "HgN/A
8:00 PM82 °FPassing clouds.7 mph79%29.89 "HgN/A
7:00 PM82 °FPassing clouds.6 mph79%29.86 "HgN/A
6:00 PM82 °FPassing clouds.9 mph74%29.86 "HgN/A
5:00 PM82 °FPartly sunny.7 mph79%29.86 "HgN/A
4:00 PM86 °FWarm.7 mph70%29.86 "HgN/A
3:00 PM86 °FBroken clouds.8 mph75%29.86 "HgN/A
2:00 PM88 °FBroken clouds.9 mph70%29.89 "HgN/A
1:00 PM86 °FBroken clouds.7 mph70%29.92 "HgN/A
12:00 PM88 °FBroken clouds.8 mph66%29.92 "HgN/A
11:00 AM84 °FScattered clouds.9 mph74%29.95 "HgN/A
Weather by CustomWeather, © 2014

See weather overviewHow to use our weather pages